Regional Weather Roundup
Issued by NWS Sterling, VA

Home | Current Version | Previous Version | Graphics & Text | Print | Product List | Glossary On
Versions: 1 2 3 4 5 6 7 8 9 10 11 12 13 14 15 16 17 18 19 20 21 22 23 24 25 26 27 28 29 30 31 32 33 34 35 36 37 38 39 40 41 42 43 44 45 46 47 48 49 50
000
ASUS41 KLWX 301610
RWRLWX

REGIONAL WEATHER ROUNDUP
NATIONAL WEATHER SERVICE BALTIMORE MD/WASHINGTON DC
1200 PM EDT SUN AUG 30 2015

Note: "FAIR" indicates few or no clouds below 12,000 feet
with no significant weather and/or obstructions to visibility.
 TC=TEMPERATURE CELSIUS

 * =Non NWS site. Station does not report precipitation (e.g. rain,
    snow, etc.), thunder, or fog.

DCZ001-MDZ009-015-VAZ040>042-051-053>054-301700-
WASHINGTON METRO

CITY           SKY/WX    TMP DP  RH WIND       PRES   REMARKS
WASHINGTON NAT CLOUDY    77  67  71 S8        30.14F
DULLES         PTSUNNY   79  65  62 CALM      30.14S
ANDREWS AFB    CLOUDY    76  65  68 S5        30.13F
FT BELVOIR     CLOUDY    76  66  71 VRB2      30.14S
QUANTICO       CLOUDY    74  65  73 S3        30.15S
COLLEGE PARK*  CLOUDY    79  64  61 SE3       30.13S
LEESBURG*      PTSUNNY   84  70  61 W9        30.14F
MANASSAS*      SUNNY     77  68  73 S5        30.14F
GAITHERSBURG*  MOSUNNY   81  64  57 NW5       30.17F

$$

MDZ006>007-011-014-301700-
BALTIMORE METRO

CITY           SKY/WX    TMP DP  RH WIND       PRES   REMARKS
BWI AIRPORT    PTSUNNY   78  66  66 S5        30.12F
MD SCIENCE CTR   N/A     83  66  56 MISG      30.12F
MARTIN STATE   SUNNY     81  72  74 SE7       30.14F
ANNAPOLIS      CLOUDY    77  64  64 S5        30.13S
FORT MEADE*    PTSUNNY   75  64  69 CALM      30.16S

$$

MDZ012-015-019>023-301700-
MARYLAND EASTERN SHORE

CITY           SKY/WX    TMP DP  RH WIND       PRES   REMARKS
OCEAN CITY     CLOUDY    81  63  54 S5        30.15F
SALISBURY      CLOUDY    80  66  62 SW7       30.15F
BAY BRIDGE AP*   N/A     77  63  61 S5        30.13F
CAMBRIDGE*     CLOUDY    79  63  57 S5        30.15S
EASTON*        MOSUNNY   81  66  61 SW8       30.18F

$$

MDZ017>025-301700-
SOUTHERN MARYLAND

CITY           SKY/WX    TMP DP  RH WIND       PRES   REMARKS
PATUXENT RIVER CLOUDY    78  64  61 VRB3      30.15S
ST INIGOES     CLOUDY    79  67  66 SE6       30.14F
LEONARDTOWN*   CLOUDY    77  63  61 CALM      30.16F

$$

MDZ003>005-301700-
NORTH CENTRAL MARYLAND

CITY           SKY/WX    TMP DP  RH WIND       PRES   REMARKS
FREDERICK*     SUNNY     84  66  54 W5        30.15F
HAGERSTOWN APT SUNNY     84  64  50 SW7       30.13F
WESTMINSTER*   MOSUNNY   82  66  57 CALM      30.14F

$$

MDZ501>502-301700-
WESTERN MARYLAND

CITY           SKY/WX    TMP DP  RH WIND       PRES   REMARKS
OAKLAND*       PTSUNNY   72  61  68 W9        30.25S
CUMBERLAND*    MOSUNNY   81  66  61 SE5       30.17F

$$

VAZ025>031-301700-
SHENANDOAH VALLEY

CITY           SKY/WX    TMP DP  RH WIND       PRES   REMARKS
WINCHESTER*    PTSUNNY   86  63  45 NW7       30.15S
FRONT ROYAL*   FAIR      82  64  54 SE6       30.14F
LURAY*         FAIR      79  63  57 S3        30.17S
NEW MARKET*    FAIR      79  66  64 S5        30.15F
STAUNTON*      CLOUDY    81  63  54 CALM      30.20F
WAYNESBORO*    FAIR      81  62  53 CALM      30.20S

$$

WVZ021-048>050-054>055-301700-
EASTERN WEST VIRGINIA PANHANDLE

CITY           SKY/WX    TMP DP  RH WIND       PRES   REMARKS
MARTINSBURG    MOSUNNY   84  64  50 VRB5      30.14F
PETERSBURG*    PTSUNNY   79  64  61 CALM      30.17S

$$

VAZ036>039-050-301700-
CENTRAL FOOTHILLS

CITY           SKY/WX    TMP DP  RH WIND       PRES   REMARKS
CHARLOTTESVILL CLOUDY    79  68  69 S5        30.16S
CULPEPER*      CLOUDY    76  68  74 CALM      30.15S
ORANGE*        CLOUDY    81  66  61 S3        30.16S
GORDONSVILLE*  FAIR      80  68  66 S5        30.15S
WARRENTON*     FAIR      79  69  71 CALM      30.14F

$$

VAZ055>057-301700-
NORTH AND CENTRAL PIEDMONT

CITY           SKY/WX    TMP DP  RH WIND       PRES   REMARKS
FREDERICKSBRG* CLOUDY    80  67  64 CALM      30.13F
STAFFORD*      CLOUDY    76  65  70 CALM      30.18F

$$

NCZ024-NYZ072-PAZ021-071-VAZ022-071-301700-
OTHER REGIONAL OBSERVATIONS

CITY           SKY/WX    TMP DP  RH WIND       PRES   REMARKS
NEW YORK CITY  SUNNY     86  65  49 CALM      30.12F
PHILADELPHIA   MOSUNNY   84  64  50 W12       30.11F
PITTSBURGH     PTSUNNY   76  66  71 VRB5      30.14F
ROANOKE        CLOUDY    79  63  57 CALM      30.21S
RICHMOND       PTSUNNY   87  61  41 S7        30.15F
RALEIGH        PTSUNNY   83  61  47 CALM      30.18F

$$

ANZ530>537-301700-
MARINE OBSERVATIONS

STATION/POSITION TIME  TEMP    WIND        PRES
                       AIR SEA DIR/SP/G
                 (UTC) (F)     (DEG/KT/KT) (MB)
THOMAS PT LIGHT  NOT AVBL

$$




USA.gov is the U.S. government's official web portal to all federal, state and local government web resources and services.